Time,TemperatureF,DewpointF,PressureIn,WindDirection,WindDirectionDegrees,WindSpeedMPH,WindSpeedGustMPH,Humidity,HourlyPrecipIn,Conditions,Clouds,dailyrainin,SolarRadiationWatts/m^2,SoftwareType,DateUTC
2014-04-19 00:00:00,42.1,35.1,30.25,SE,135,0.0,0.0,76,0.00,OVC,,0.00,0.0,WeatherDisplay:10.37,2014-04-19 04:00:00,
2014-04-19 00:01:00,42.1,35.1,30.25,SE,135,0.0,0.0,76,0.00,OVC,,0.00,0.0,WeatherDisplay:10.37,2014-04-19 04:01:00,
2014-04-19 00:02:00,42.1,35.1,30.25,SSE,158,0.0,0.0,76,0.00,OVC,,0.00,0.0,WeatherDisplay:10.37,2014-04-19 04:02:00,
2014-04-19 00:03:00,42.1,35.1,30.25,SSE,158,0.0,0.0,76,0.00,OVC,,0.00,0.0,WeatherDisplay:10.37,2014-04-19 04:03:00,
2014-04-19 00:04:00,42.1,35.1,30.25,SSE,158,0.0,0.0,76,0.00,OVC,,0.00,0.0,WeatherDisplay:10.37,2014-04-19 04:04:00,
2014-04-19 00:05:00,42.1,35.1,30.25,SSE,158,0.0,0.0,76,0.00,OVC,,0.00,0.0,WeatherDisplay:10.37,2014-04-19 04:05:00,
2014-04-19 00:09:00,42.1,35.1,30.25,SSE,158,0.0,0.0,76,0.00,OVC,,0.00,0.0,WeatherDisplay:10.37,2014-04-19 04:09:00,
2014-04-19 00:14:00,42.3,35.2,30.25,SSE,158,0.0,0.0,76,0.00,OVC,,0.00,0.0,WeatherDisplay:10.37,2014-04-19 04:14:00,
2014-04-19 00:19:00,42.1,35.4,30.24,SE,135,0.0,0.0,77,0.00,OVC,,0.00,0.0,WeatherDisplay:10.37,2014-04-19 04:19:00,
2014-04-19 00:24:00,42.1,35.4,30.24,SSE,158,0.0,0.0,77,0.00,OVC,,0.00,0.0,WeatherDisplay:10.37,2014-04-19 04:24:00,
2014-04-19 00:29:00,42.1,35.4,30.24,SSW,202,0.0,0.0,77,0.00,OVC,,0.00,0.0,WeatherDisplay:10.37,2014-04-19 04:29:00,
2014-04-19 00:34:00,41.9,35.2,30.24,ESE,112,0.0,0.0,77,0.00,OVC,,0.00,0.0,WeatherDisplay:10.37,2014-04-19 04:34:00,
2014-04-19 00:39:00,41.9,35.5,30.24,South,180,0.0,0.0,78,0.00,OVC,,0.00,0.0,WeatherDisplay:10.37,2014-04-19 04:39:00,
2014-04-19 00:44:00,41.9,35.5,30.24,SSE,158,0.0,0.0,78,0.00,OVC,,0.00,0.0,WeatherDisplay:10.37,2014-04-19 04:44:00,
2014-04-19 00:49:00,41.9,35.2,30.24,SW,225,0.0,0.0,77,0.00,OVC,,0.00,0.0,WeatherDisplay:10.37,2014-04-19 04:49:00,
2014-04-19 00:54:00,41.9,35.2,30.24,South,180,0.0,0.0,77,0.00,OVC,,0.00,0.0,WeatherDisplay:10.37,2014-04-19 04:54:00,
2014-04-19 00:59:00,41.9,35.2,30.24,SSE,158,0.0,0.0,77,0.00,OVC,,0.00,0.0,WeatherDisplay:10.37,2014-04-19 04:59:00,
2014-04-19 01:04:00,41.9,35.5,30.24,SE,135,0.0,0.0,78,0.00,OVC,,0.00,0.0,WeatherDisplay:10.37,2014-04-19 05:04:00,
2014-04-19 01:09:00,41.9,35.5,30.24,SSW,202,0.0,0.0,78,0.00,OVC,,0.00,0.0,WeatherDisplay:10.37,2014-04-19 05:09:00,
2014-04-19 01:14:00,41.5,34.9,30.24,SW,225,0.0,0.0,77,0.00,OVC,,0.00,0.0,WeatherDisplay:10.37,2014-04-19 05:14:00,
2014-04-19 01:19:00,41.4,34.7,30.22,SSE,158,0.0,0.0,77,0.00,OVC,,0.00,0.0,WeatherDisplay:10.37,2014-04-19 05:19:00,
2014-04-19 01:24:00,41.5,34.9,30.22,SSW,202,0.0,0.0,77,0.00,OVC,,0.00,0.0,WeatherDisplay:10.37,2014-04-19 05:24:00,
2014-04-19 01:29:00,41.4,34.7,30.22,East,90,0.0,0.0,77,0.00,OVC,,0.00,0.0,WeatherDisplay:10.37,2014-04-19 05:29:00,
2014-04-19 01:34:00,41.4,34.7,30.22,East,90,0.0,0.0,77,0.00,OVC,,0.00,0.0,WeatherDisplay:10.37,2014-04-19 05:34:00,
2014-04-19 01:39:00,41.2,34.8,30.22,East,90,0.0,0.0,78,0.00,OVC,,0.00,0.0,WeatherDisplay:10.37,2014-04-19 05:39:00,
2014-04-19 01:41:00,41.2,34.8,30.22,East,90,0.0,0.0,78,0.00,OVC,,0.00,0.0,WeatherDisplay:10.37,2014-04-19 05:41:00,
2014-04-19 01:46:00,41.0,34.7,30.22,South,180,0.0,0.0,78,0.00,OVC,,0.00,0.0,WeatherDisplay:10.37,2014-04-19 05:46:00,
2014-04-19 01:51:00,41.2,34.8,30.22,South,180,0.0,0.0,78,0.00,OVC,,0.00,0.0,WeatherDisplay:10.37,2014-04-19 05:51:00,
2014-04-19 01:56:00,41.2,34.8,30.22,South,180,0.0,0.0,78,0.00,OVC,,0.00,0.0,WeatherDisplay:10.37,2014-04-19 05:56:00,
2014-04-19 02:01:00,41.0,34.7,30.22,SSE,158,0.0,0.0,78,0.00,OVC,,0.00,0.0,WeatherDisplay:10.37,2014-04-19 06:01:00,
2014-04-19 02:06:00,40.8,34.5,30.22,South,180,0.0,0.0,78,0.00,OVC,,0.00,0.0,WeatherDisplay:10.37,2014-04-19 06:06:00,
2014-04-19 02:11:00,40.8,34.5,30.22,South,180,0.0,0.0,78,0.00,OVC,,0.00,0.0,WeatherDisplay:10.37,2014-04-19 06:11:00,
2014-04-19 02:16:00,40.6,34.3,30.22,SSW,202,0.0,0.0,78,0.00,OVC,,0.00,0.0,WeatherDisplay:10.37,2014-04-19 06:16:00,
2014-04-19 02:21:00,40.6,34.3,30.21,SW,225,0.0,0.0,78,0.00,OVC,,0.00,0.0,WeatherDisplay:10.37,2014-04-19 06:21:00,
2014-04-19 02:26:00,40.8,34.8,30.21,SW,225,0.0,0.0,79,0.00,OVC,,0.00,0.0,WeatherDisplay:10.37,2014-04-19 06:26:00,
2014-04-19 02:31:00,40.6,34.6,30.21,South,180,0.0,0.0,79,0.00,OVC,,0.00,0.0,WeatherDisplay:10.37,2014-04-19 06:31:00,
2014-04-19 02:36:00,40.5,34.5,30.21,South,180,0.0,0.0,79,0.00,OVC,,0.00,0.0,WeatherDisplay:10.37,2014-04-19 06:36:00,
2014-04-19 02:37:00,40.5,34.5,30.21,South,180,0.0,0.0,79,0.00,OVC,,0.00,0.0,WeatherDisplay:10.37,2014-04-19 06:37:00,
2014-04-19 02:42:00,40.5,34.5,30.21,South,180,0.0,0.0,79,0.00,OVC,,0.00,0.0,WeatherDisplay:10.37,2014-04-19 06:42:00,
2014-04-19 02:47:00,40.5,34.5,30.21,South,180,0.0,0.0,79,0.00,OVC,,0.00,0.0,WeatherDisplay:10.37,2014-04-19 06:47:00,
2014-04-19 02:52:00,40.3,34.3,30.21,South,180,0.0,0.0,79,0.00,OVC,,0.00,0.0,WeatherDisplay:10.37,2014-04-19 06:52:00,
2014-04-19 02:57:00,40.5,34.5,30.21,South,180,0.0,0.0,79,0.00,OVC,,0.00,0.0,WeatherDisplay:10.37,2014-04-19 06:57:00,
2014-04-19 03:02:00,40.5,34.5,30.21,North,0,0.0,0.0,79,0.00,OVC,,0.00,0.0,WeatherDisplay:10.37,2014-04-19 07:02:00,
2014-04-19 03:07:00,40.5,34.5,30.21,North,0,0.0,0.0,79,0.00,OVC,,0.00,0.0,WeatherDisplay:10.37,2014-04-19 07:07:00,
2014-04-19 03:12:00,40.5,34.5,30.21,North,0,0.0,0.0,79,0.00,OVC,,0.00,0.0,WeatherDisplay:10.37,2014-04-19 07:12:00,
2014-04-19 03:17:00,40.1,34.1,30.21,NNW,338,0.0,0.0,79,0.00,OVC,,0.00,0.0,WeatherDisplay:10.37,2014-04-19 07:17:00,
2014-04-19 03:22:00,40.1,34.1,30.23,NNW,338,0.0,0.0,79,0.00,OVC,,0.00,0.0,WeatherDisplay:10.37,2014-04-19 07:22:00,
2014-04-19 03:27:00,40.1,34.1,30.23,NNW,338,0.0,0.0,79,0.00,OVC,,0.00,0.0,WeatherDisplay:10.37,2014-04-19 07:27:00,
2014-04-19 03:32:00,39.9,34.2,30.23,North,0,0.0,0.0,80,0.00,OVC,,0.00,0.0,WeatherDisplay:10.37,2014-04-19 07:32:00,
2014-04-19 03:37:00,39.9,34.2,30.23,ESE,112,0.0,0.0,80,0.00,OVC,,0.00,0.0,WeatherDisplay:10.37,2014-04-19 07:37:00,
2014-04-19 03:42:00,39.9,34.2,30.22,ESE,112,0.0,0.0,80,0.00,OVC,,0.00,0.0,WeatherDisplay:10.37,2014-04-19 07:42:00,
2014-04-19 03:47:00,39.9,34.2,30.22,South,180,0.0,0.0,80,0.00,OVC,,0.00,0.0,WeatherDisplay:10.37,2014-04-19 07:47:00,
2014-04-19 03:52:00,39.9,34.2,30.22,WSW,248,0.0,0.0,80,0.00,OVC,,0.00,0.0,WeatherDisplay:10.37,2014-04-19 07:52:00,
2014-04-19 03:57:00,39.9,34.2,30.22,WSW,248,0.0,0.0,80,0.00,OVC,,0.00,0.0,WeatherDisplay:10.37,2014-04-19 07:57:00,
2014-04-19 04:02:00,39.7,34.1,30.21,WSW,248,0.0,0.0,80,0.00,OVC,,0.00,0.0,WeatherDisplay:10.37,2014-04-19 08:02:00,
2014-04-19 04:07:00,39.9,34.2,30.21,SW,225,0.0,0.0,80,0.00,OVC,,0.00,0.0,WeatherDisplay:10.37,2014-04-19 08:07:00,
2014-04-19 04:12:00,39.7,34.1,30.21,WSW,248,0.0,0.0,80,0.00,OVC,,0.00,0.0,WeatherDisplay:10.37,2014-04-19 08:12:00,
2014-04-19 04:17:00,39.9,34.2,30.21,SSW,202,0.0,0.0,80,0.00,OVC,,0.00,0.0,WeatherDisplay:10.37,2014-04-19 08:17:00,
2014-04-19 04:22:00,39.7,34.1,30.21,SSW,202,0.0,0.0,80,0.00,OVC,,0.00,0.0,WeatherDisplay:10.37,2014-04-19 08:22:00,
2014-04-19 04:27:00,39.7,34.1,30.21,South,180,0.0,0.0,80,0.00,OVC,,0.00,0.0,WeatherDisplay:10.37,2014-04-19 08:27:00,
2014-04-19 04:32:00,39.6,33.9,30.21,SW,225,0.0,0.0,80,0.00,OVC,,0.00,0.0,WeatherDisplay:10.37,2014-04-19 08:32:00,
2014-04-19 04:37:00,39.7,34.1,30.21,South,180,0.0,0.0,80,0.00,OVC,,0.00,0.0,WeatherDisplay:10.37,2014-04-19 08:37:00,
2014-04-19 04:42:00,39.4,34.0,30.21,WSW,248,0.0,0.0,81,0.00,OVC,,0.00,0.0,WeatherDisplay:10.37,2014-04-19 08:42:00,
2014-04-19 04:47:00,39.6,34.2,30.21,SSW,202,0.0,0.0,81,0.00,OVC,,0.00,0.0,WeatherDisplay:10.37,2014-04-19 08:47:00,
2014-04-19 04:52:00,39.4,34.0,30.21,SE,135,0.0,0.0,81,0.00,OVC,,0.00,0.0,WeatherDisplay:10.37,2014-04-19 08:52:00,
2014-04-19 04:57:00,39.4,34.0,30.21,SE,135,0.0,0.0,81,0.00,OVC,,0.00,0.0,WeatherDisplay:10.37,2014-04-19 08:57:00,
2014-04-19 05:02:00,39.4,34.0,30.19,West,270,0.0,0.0,81,0.00,OVC,,0.00,0.0,WeatherDisplay:10.37,2014-04-19 09:02:00,
2014-04-19 05:08:00,39.4,34.0,30.19,West,270,0.0,0.0,81,0.00,OVC,,0.00,0.0,WeatherDisplay:10.37,2014-04-19 09:08:00,
2014-04-19 05:13:00,39.4,34.0,30.19,West,270,0.0,0.0,81,0.00,OVC,,0.00,0.0,WeatherDisplay:10.37,2014-04-19 09:13:00,
2014-04-19 05:18:00,39.2,33.9,30.21,West,270,0.0,0.0,81,0.00,OVC,,0.00,0.0,WeatherDisplay:10.37,2014-04-19 09:18:00,
2014-04-19 05:23:00,39.4,34.0,30.21,West,270,0.0,0.0,81,0.00,OVC,,0.00,0.0,WeatherDisplay:10.37,2014-04-19 09:23:00,
2014-04-19 05:28:00,39.0,34.0,30.21,West,270,0.0,0.0,82,0.00,OVC,,0.00,0.0,WeatherDisplay:10.37,2014-04-19 09:28:00,
2014-04-19 05:33:00,39.0,34.0,30.21,SSW,202,0.0,0.0,82,0.00,OVC,,0.00,0.0,WeatherDisplay:10.37,2014-04-19 09:33:00,
2014-04-19 05:38:00,39.0,34.0,30.22,South,180,0.0,0.0,82,0.00,OVC,,0.00,0.0,WeatherDisplay:10.37,2014-04-19 09:38:00,
2014-04-19 05:43:00,39.0,34.0,30.22,South,180,0.0,0.0,82,0.00,OVC,,0.00,0.0,WeatherDisplay:10.37,2014-04-19 09:43:00,
2014-04-19 05:48:00,39.0,34.0,30.22,SW,225,0.0,0.0,82,0.00,OVC,,0.00,0.0,WeatherDisplay:10.37,2014-04-19 09:48:00,
2014-04-19 05:53:00,38.8,33.8,30.22,SW,225,0.0,0.0,82,0.00,OVC,,0.00,0.0,WeatherDisplay:10.37,2014-04-19 09:53:00,
2014-04-19 05:58:00,38.7,33.6,30.21,SSE,158,0.0,0.0,82,0.00,OVC,,0.00,0.0,WeatherDisplay:10.37,2014-04-19 09:58:00,
2014-04-19 06:03:00,38.7,33.6,30.21,South,180,0.0,0.0,82,0.00,OVC,,0.00,0.0,WeatherDisplay:10.37,2014-04-19 10:03:00,
2014-04-19 06:08:00,38.7,33.6,30.21,South,180,0.0,0.0,82,0.00,OVC,,0.00,0.0,WeatherDisplay:10.37,2014-04-19 10:08:00,
2014-04-19 06:13:00,38.7,33.6,30.21,SSW,202,0.0,0.0,82,0.00,OVC,,0.00,0.0,WeatherDisplay:10.37,2014-04-19 10:13:00,
2014-04-19 06:18:00,38.5,33.5,30.22,SW,225,0.0,0.0,82,0.00,OVC,,0.00,0.0,WeatherDisplay:10.37,2014-04-19 10:18:00,
2014-04-19 06:23:00,38.5,33.5,30.22,SW,225,0.0,0.0,82,0.00,OVC,,0.00,0.0,WeatherDisplay:10.37,2014-04-19 10:23:00,
2014-04-19 06:28:00,38.5,33.8,30.22,South,180,0.0,0.0,83,0.00,OVC,,0.00,0.0,WeatherDisplay:10.37,2014-04-19 10:28:00,
2014-04-19 06:33:00,38.5,33.5,30.22,South,180,0.0,0.0,82,0.00,OVC,,0.00,0.0,WeatherDisplay:10.37,2014-04-19 10:33:00,
2014-04-19 06:38:00,38.5,33.5,30.22,South,180,0.0,0.0,82,0.00,OVC,,0.00,0.0,WeatherDisplay:10.37,2014-04-19 10:38:00,
2014-04-19 06:43:00,38.7,33.9,30.22,South,180,0.0,0.0,83,0.00,OVC,,0.00,0.0,WeatherDisplay:10.37,2014-04-19 10:43:00,
2014-04-19 06:48:00,39.0,34.3,30.22,South,180,0.0,0.0,83,0.00,OVC,,0.00,0.0,WeatherDisplay:10.37,2014-04-19 10:48:00,
2014-04-19 06:53:00,39.0,34.3,30.22,South,180,0.0,0.0,83,0.00,OVC,,0.00,0.0,WeatherDisplay:10.37,2014-04-19 10:53:00,
2014-04-19 06:58:00,39.2,34.5,30.24,SSW,202,0.0,0.0,83,0.00,OVC,,0.00,0.0,WeatherDisplay:10.37,2014-04-19 10:58:00,
2014-04-19 07:03:00,39.4,34.6,30.24,WSW,248,0.0,0.0,83,0.00,OVC,,0.00,0.0,WeatherDisplay:10.37,2014-04-19 11:03:00,
2014-04-19 07:08:00,39.7,35.0,30.24,West,270,0.0,0.0,83,0.00,OVC,,0.00,0.0,WeatherDisplay:10.37,2014-04-19 11:08:00,
2014-04-19 07:13:00,39.9,35.2,30.24,West,270,0.0,0.0,83,0.00,OVC,,0.00,0.0,WeatherDisplay:10.37,2014-04-19 11:13:00,
2014-04-19 07:18:00,40.1,35.4,30.25,WSW,248,0.0,0.0,83,0.00,OVC,,0.00,0.0,WeatherDisplay:10.37,2014-04-19 11:18:00,
2014-04-19 07:23:00,40.3,35.5,30.25,WSW,248,0.0,0.0,83,0.00,OVC,,0.00,0.0,WeatherDisplay:10.37,2014-04-19 11:23:00,
2014-04-19 07:28:00,40.6,35.9,30.25,West,270,0.0,0.0,83,0.00,OVC,,0.00,0.0,WeatherDisplay:10.37,2014-04-19 11:28:00,
2014-04-19 07:33:00,41.2,36.7,30.25,WSW,248,0.0,0.0,84,0.00,OVC,,0.00,0.0,WeatherDisplay:10.37,2014-04-19 11:33:00,
2014-04-19 07:38:00,41.5,37.1,30.26,WSW,248,0.0,0.0,84,0.00,OVC,,0.00,0.0,WeatherDisplay:10.37,2014-04-19 11:38:00,
2014-04-19 07:43:00,42.4,37.9,30.26,SW,225,0.0,0.0,84,0.00,OVC,,0.00,0.0,WeatherDisplay:10.37,2014-04-19 11:43:00,
2014-04-19 07:48:00,42.6,37.8,30.26,WSW,248,0.0,0.0,83,0.00,OVC,,0.00,0.0,WeatherDisplay:10.37,2014-04-19 11:48:00,
2014-04-19 07:53:00,43.3,38.5,30.26,SSW,202,0.0,0.0,83,0.00,OVC,,0.00,0.0,WeatherDisplay:10.37,2014-04-19 11:53:00,
2014-04-19 07:58:00,43.3,38.5,30.26,WSW,248,0.0,0.0,83,0.00,OVC,,0.00,0.0,WeatherDisplay:10.37,2014-04-19 11:58:00,
2014-04-19 08:03:00,44.1,38.9,30.26,WSW,248,0.0,0.0,82,0.00,OVC,,0.00,0.0,WeatherDisplay:10.37,2014-04-19 12:03:00,
2014-04-19 08:08:00,44.4,39.3,30.26,West,270,0.0,0.0,82,0.00,OVC,,0.00,0.0,WeatherDisplay:10.37,2014-04-19 12:08:00,
2014-04-19 08:13:00,45.0,39.8,30.26,SSW,202,0.0,0.0,82,0.00,OVC,,0.00,0.0,WeatherDisplay:10.37,2014-04-19 12:13:00,
2014-04-19 08:18:00,45.5,40.0,30.27,West,270,0.0,0.0,81,0.00,OVC,,0.00,0.0,WeatherDisplay:10.37,2014-04-19 12:18:00,
2014-04-19 08:23:00,45.7,39.9,30.27,West,270,0.1,0.0,80,0.00,OVC,,0.00,0.0,WeatherDisplay:10.37,2014-04-19 12:23:00,
2014-04-19 08:28:00,46.2,40.4,30.27,SSE,158,0.0,0.0,80,0.00,OVC,,0.00,0.0,WeatherDisplay:10.37,2014-04-19 12:28:00,
2014-04-19 08:33:00,46.9,40.8,30.27,NE,45,0.1,0.0,79,0.00,OVC,,0.00,0.0,WeatherDisplay:10.37,2014-04-19 12:33:00,
2014-04-19 08:38:00,47.1,40.6,30.27,SSE,158,0.2,0.0,78,0.00,OVC,,0.00,0.0,WeatherDisplay:10.37,2014-04-19 12:38:00,
2014-04-19 08:43:00,47.8,41.0,30.27,WSW,248,0.5,0.0,77,0.00,OVC,,0.00,0.0,WeatherDisplay:10.37,2014-04-19 12:43:00,
2014-04-19 08:48:00,48.4,41.2,30.27,WSW,248,0.3,0.0,76,0.00,OVC,,0.00,0.0,WeatherDisplay:10.37,2014-04-19 12:48:00,
2014-04-19 08:53:00,48.6,40.6,30.27,ENE,68,0.3,1.2,74,0.00,OVC,,0.00,0.0,WeatherDisplay:10.37,2014-04-19 12:53:00,
2014-04-19 08:58:00,49.3,41.3,30.28,SSE,158,0.3,0.0,74,0.00,OVC,,0.00,0.0,WeatherDisplay:10.37,2014-04-19 12:58:00,
2014-04-19 09:03:00,49.8,41.5,30.28,West,270,0.0,1.0,73,0.00,OVC,,0.00,0.0,WeatherDisplay:10.37,2014-04-19 13:03:00,
2014-04-19 09:08:00,50.2,41.1,30.28,NE,45,0.3,0.0,71,0.00,OVC,,0.00,0.0,WeatherDisplay:10.37,2014-04-19 13:08:00,
2014-04-19 09:13:00,50.9,41.8,30.28,NE,45,0.5,2.0,71,0.00,OVC,,0.00,0.0,WeatherDisplay:10.37,2014-04-19 13:13:00,
2014-04-19 09:18:00,51.3,41.4,30.28,East,90,0.3,0.0,69,0.00,OVC,,0.00,0.0,WeatherDisplay:10.37,2014-04-19 13:18:00,
2014-04-19 09:23:00,51.8,41.6,30.28,SE,135,0.5,1.2,68,0.00,OVC,,0.00,0.0,WeatherDisplay:10.37,2014-04-19 13:23:00,
2014-04-19 09:28:00,52.3,41.7,30.28,SSW,202,0.5,1.2,67,0.00,OVC,,0.00,0.0,WeatherDisplay:10.37,2014-04-19 13:28:00,
2014-04-19 09:33:00,52.9,42.2,30.28,West,270,0.3,1.2,67,0.00,OVC,,0.00,0.0,WeatherDisplay:10.37,2014-04-19 13:33:00,
2014-04-19 09:38:00,53.1,41.6,30.29,ESE,112,0.2,0.0,65,0.00,OVC,,0.00,0.0,WeatherDisplay:10.37,2014-04-19 13:38:00,
2014-04-19 09:43:00,53.4,41.9,30.29,ENE,68,0.2,0.0,65,0.00,OVC,,0.00,0.0,WeatherDisplay:10.37,2014-04-19 13:43:00,
2014-04-19 09:48:00,54.1,42.6,30.29,SSE,158,0.1,0.0,65,0.00,OVC,,0.00,0.0,WeatherDisplay:10.37,2014-04-19 13:48:00,
2014-04-19 09:53:00,54.5,42.6,30.29,ESE,112,0.1,1.2,64,0.00,OVC,,0.00,0.0,WeatherDisplay:10.37,2014-04-19 13:53:00,
2014-04-19 09:58:00,54.9,42.1,30.29,North,0,0.3,2.3,62,0.00,OVC,,0.00,0.0,WeatherDisplay:10.37,2014-04-19 13:58:00,
2014-04-19 10:03:00,55.6,42.3,30.29,ENE,68,0.6,0.0,61,0.00,OVC,,0.00,0.0,WeatherDisplay:10.37,2014-04-19 14:03:00,
2014-04-19 10:08:00,56.3,42.1,30.29,NE,45,0.7,1.3,59,0.00,OVC,,0.00,0.0,WeatherDisplay:10.37,2014-04-19 14:08:00,
2014-04-19 10:13:00,56.7,41.6,30.29,SSW,202,0.8,1.2,57,0.00,OVC,,0.00,0.0,WeatherDisplay:10.37,2014-04-19 14:13:00,
2014-04-19 10:18:00,57.0,41.0,30.29,North,0,1.0,2.3,55,0.00,OVC,,0.00,0.0,WeatherDisplay:10.37,2014-04-19 14:18:00,
2014-04-19 10:23:00,57.7,42.1,30.29,WNW,292,0.7,0.0,56,0.00,OVC,,0.00,0.0,WeatherDisplay:10.37,2014-04-19 14:23:00,
2014-04-19 10:28:00,58.1,40.1,30.29,WNW,292,1.0,3.9,51,0.00,OVC,,0.00,0.0,WeatherDisplay:10.37,2014-04-19 14:28:00,
2014-04-19 10:33:00,58.6,41.5,30.29,NNE,22,0.9,1.2,53,0.00,OVC,,0.00,0.0,WeatherDisplay:10.37,2014-04-19 14:33:00,
2014-04-19 10:38:00,59.4,41.7,30.30,NE,45,1.2,2.3,52,0.00,OVC,,0.00,0.0,WeatherDisplay:10.37,2014-04-19 14:38:00,
2014-04-19 10:43:00,59.7,41.0,30.30,ENE,68,1.0,1.5,50,0.00,OVC,,0.00,0.0,WeatherDisplay:10.37,2014-04-19 14:43:00,
2014-04-19 10:48:00,59.9,41.2,30.30,NW,315,1.2,2.6,50,0.00,OVC,,0.00,0.0,WeatherDisplay:10.37,2014-04-19 14:48:00,
2014-04-19 10:53:00,60.1,40.3,30.30,East,90,0.9,1.2,48,0.00,OVC,,0.00,0.0,WeatherDisplay:10.37,2014-04-19 14:53:00,
2014-04-19 10:58:00,60.3,38.8,30.29,NE,45,1.2,3.5,45,0.00,OVC,,0.00,0.0,WeatherDisplay:10.37,2014-04-19 14:58:00,
2014-04-19 11:03:00,60.8,38.7,30.29,West,270,1.4,4.6,44,0.00,OVC,,0.00,0.0,WeatherDisplay:10.37,2014-04-19 15:03:00,
2014-04-19 11:08:00,61.3,39.8,30.29,ESE,112,1.2,1.2,45,0.00,OVC,,0.00,0.0,WeatherDisplay:10.37,2014-04-19 15:08:00,
2014-04-19 11:13:00,61.5,40.0,30.29,North,0,0.9,0.0,45,0.00,OVC,,0.00,0.0,WeatherDisplay:10.37,2014-04-19 15:13:00,
2014-04-19 11:18:00,61.7,40.1,30.29,NNE,22,0.9,2.3,45,0.00,OVC,,0.00,0.0,WeatherDisplay:10.37,2014-04-19 15:18:00,
2014-04-19 11:23:00,62.1,39.3,30.29,ESE,112,1.2,0.0,43,0.00,OVC,,0.00,0.0,WeatherDisplay:10.37,2014-04-19 15:23:00,
2014-04-19 11:28:00,62.2,38.8,30.29,North,0,1.3,4.6,42,0.00,OVC,,0.00,0.0,WeatherDisplay:10.37,2014-04-19 15:28:00,
2014-04-19 11:33:00,62.4,39.6,30.29,ESE,112,1.2,2.3,43,0.00,OVC,,0.00,0.0,WeatherDisplay:10.37,2014-04-19 15:33:00,
2014-04-19 11:38:00,62.8,38.7,30.28,NNE,22,1.4,3.5,41,0.00,OVC,,0.00,0.0,WeatherDisplay:10.37,2014-04-19 15:38:00,
2014-04-19 11:43:00,63.1,39.0,30.28,North,0,1.4,3.5,41,0.00,OVC,,0.00,0.0,WeatherDisplay:10.37,2014-04-19 15:43:00,
2014-04-19 11:48:00,63.5,38.7,30.28,West,270,1.2,3.5,40,0.00,OVC,,0.00,0.0,WeatherDisplay:10.37,2014-04-19 15:48:00,
2014-04-19 11:53:00,63.5,38.7,30.28,WNW,292,1.0,0.0,40,0.00,OVC,,0.00,0.0,WeatherDisplay:10.37,2014-04-19 15:53:00,
2014-04-19 11:58:00,64.0,38.6,30.27,SSW,202,1.2,4.6,39,0.00,OVC,,0.00,0.0,WeatherDisplay:10.37,2014-04-19 15:58:00,
2014-04-19 12:03:00,64.2,39.4,30.27,ESE,112,0.9,0.0,40,0.00,OVC,,0.00,0.0,WeatherDisplay:10.37,2014-04-19 16:03:00,
2014-04-19 12:08:00,64.2,39.4,30.27,ESE,112,0.9,0.0,40,0.00,OVC,,0.00,0.0,WeatherDisplay:10.37,2014-04-19 16:08:00,
2014-04-19 12:13:00,64.9,38.7,30.27,ESE,112,1.0,0.0,38,0.00,OVC,,0.00,0.0,WeatherDisplay:10.37,2014-04-19 16:13:00,
2014-04-19 12:18:00,65.3,39.0,30.26,NE,45,1.4,2.3,38,0.00,OVC,,0.00,0.0,WeatherDisplay:10.37,2014-04-19 16:18:00,